THOR ABLESTAR DEB, 1608

Orbit data source: Space-Track

THOR ABLESTAR DEB, 1608 is space debris in LEO originally from a launch on Sun, 13 Dec 1964 UTC launched from the Air Force Western Test Range (AFWTR). Debris objects in space refer to the collection of defunct objects orbiting the Earth. Examples of debris include non-operational satellites, rocket bodies, and fragments generated from explosions, collisions, or faulty payload assembly.

Loading next visibility...
THOR ABLESTAR DEB details
Identifier
1608, 1964-083H
Orbit
LEO
Last TLE update1 day ago
Origin
Flag of USUSN BuWeps (US)
ManufacturerUnknown
MissionSpacecraft
Bus & MotorUnknown
MassUnknown
Launch date (UTC)
1964-12-13 (60 years ago)
Launch vehicleUnknown
Launch site
Air Force Western Test Range (AFWTR)
Object type
Payload
Rocket body
Debris
Shape & HBRUnknown
Radar Cross SectionSmall (<0.1 m²)

Expand to show TLE details & history

TLE from 1 day ago
0 THOR ABLESTAR DEB
1 01608U 64083H   25044.58039664  .00001342  00000-0  11742-2 0  9999
2 01608  89.7534  78.9582 0019108 162.0901   2.9081 13.85099522  7258
Epoch: 2025-02-13T13:55Z
Definitive object data (Epoch: 2025-02-13T13:55:46.269Z)
Latitude14.96376°
Longitude-93.90462°
Altitude934.177 km
Speed7.393 km/s
True Right ascension17h 15m 34s
True Declination14° 52' 49"
Sunlit
Object was in daylight at TLE epoch
Visualization TLE readout
Latitude-72.94727°
Longitude-93.06641°
Altitude973.715 km
Speed7.364 km/s
Apparent Right ascension05h 14m 32s
Apparent Declination-76° 07' 12"
Sunlit
Object is in daylight
Visualization observer readout
Local Sidereal Time17:16:28
Azimuth179.803° S
Elevation-53.795°
Doppler factor1
Orbital elements
Apogee altitude956.843 km
Perigee altitude928.865 km
Semi-major axis7,320.991 km
Eccentricity0.0019108
Inclination89.7534°
RAAN78.9582°
Arg. of periapsis162.0901°
True anomaly2.91924°
Mean anomaly2.9081°
Eccentric anomaly2.91367°
Mean motion3.46488 °/min
BSTAR0.0011742
Orbital period103.9 mins
Loading maneuver chart data...

THOR ABLESTAR DEB Visibility forecast

Observer location: undefined°, undefined

Span
Click to sort rows by Start time (UTC) header in descending order
Start Az.
Max El. time (UTC)
Max El. Az.
Max El.
End time (UTC)
End Az.
8 mins2025-02-14 15:44:28.237Z329.706° NNW2025-02-14 15:48:28.237Z283.592° WNW20.811°2025-02-14 15:52:28.237Z238.517° WSW
9 mins2025-02-15 01:40:28.237Z134.797° SE2025-02-15 01:44:28.237Z81.636° E29.325°2025-02-15 01:49:28.237Z18.854° NNE
9 mins2025-02-15 03:24:28.237Z221.644° SW2025-02-15 03:28:28.237Z277.828° WNW28.579°2025-02-15 03:33:28.237Z337.487° NNW
10 mins2025-02-15 14:16:28.237Z6.847° NNE2025-02-15 14:21:28.237Z100.246° ESE43.912°2025-02-15 14:26:28.237Z175.579° S
|